NIMIQ 5

Last updated on Thu Oct 30 2025 00:02:48 GMT+0000 (Coordinated Universal Time)

1 35873U 09050A 25302.46254323 -.00000247 00000+0 00000+0 0 9993 2 35873 0.0174 252.8348 0003002 335.1017 263.9519 1.00270570 59031
UTC large
Height (km)
Speed (km/s)
/
Latitude / Longitude
Inclination (degrees)
Orbital Period (minutes)
Azimuth
Elevation
Range (km)
Doppler Factor

Next 0 passes for location: London (51.5072 / 0.1276)

Sorry there are no passes over London.